Weather History for Sacramento International, CA

Change the Weather History Date:

Saturday, May 4, 2013

  Actual Average Record
Temperature  
Mean Temperature 74 °F -  
Max Temperature 90 °F 77 °F 98 °F (1990)
Min Temperature 57 °F 49 °F 37 °F (1999)
Cooling Degree Days 8    
Growing Degree Days 24 (Base 50)    
Moisture  
Dew Point 39 °F    
Average Humidity 33    
Maximum Humidity 67    
Minimum Humidity 12    
Precipitation  
Precipitation 0.00 in - - ()
Sea Level Pressure  
Sea Level Pressure 29.62 in    
Wind  
Wind Speed 12 mph (NNW)    
Max Wind Speed 26 mph    
Max Gust Speed 34 mph    
Visibility 10 miles    
Events      
Averages and records for this station are not official NWS values.
T = Trace of Precipitation, MM = Missing Value Source: NWS Daily Summary

Daily Weather History Graph

Daily Weather History Graph

Search for Another Location

Airport:

Trip Planner

Search our weather history database for the weather conditions in past years. The results will help you decide how hot, cold, wet, or windy it might be!

Date:

Astronomy

May. 04, 2013 Rise Set
Actual Time 6:05 AM PDT 8:01 PM PDT
Civil Twilight 5:36 AM PDT 8:30 PM PDT
Nautical Twilight 5:00 AM PDT 9:06 PM PDT
Astronomical Twilight 4:23 AM PDT 9:44 PM PDT
Moon 3:02 AM PDT (5/4) 3:08 PM PDT (5/4)
Length of Visible Light 14h 54m
Length of Day
13h 56m
Waning Crescent, 26% of the Moon is Illuminated
May 4
Waning Crescent
May 9
New
May 17
First Quarter
May 24
Full
May 31
Last Quarter

Hourly Weather History & Observations

Time (PDT) Temp. Dew Point Humidity Pressure Visibility Wind Dir Wind Speed Gust Speed Precip Events Conditions
12:53 AM 57.0 °F 45.0 °F 64% 29.75 in 10.0 mi NE 3.5 mph - N/A   Clear
1:53 AM 59.0 °F 48.0 °F 67% 29.74 in 10.0 mi NNW 6.9 mph - N/A   Clear
2:53 AM 60.1 °F 48.9 °F 67% 29.73 in 9.0 mi NW 8.1 mph - N/A   Clear
3:53 AM 64.9 °F 45.0 °F 48% 29.72 in 10.0 mi NNW 16.1 mph - N/A   Clear
4:53 AM 64.0 °F 41.0 °F 43% 29.71 in 10.0 mi NNW 15.0 mph - N/A   Clear
5:53 AM 66.0 °F 37.0 °F 34% 29.71 in 10.0 mi NNW 18.4 mph - N/A   Clear
6:53 AM 66.9 °F 37.0 °F 33% 29.71 in 10.0 mi NW 19.6 mph 25.3 mph N/A   Clear
7:53 AM 71.1 °F 37.0 °F 29% 29.70 in 10.0 mi NNW 21.9 mph 27.6 mph N/A   Clear
8:53 AM 75.9 °F 37.0 °F 24% 29.68 in 10.0 mi NNW 26.5 mph 34.5 mph N/A   Clear
9:53 AM 79.0 °F 37.9 °F 23% 29.67 in 10.0 mi NNW 19.6 mph 29.9 mph N/A   Clear
10:53 AM 82.9 °F 33.1 °F 17% 29.66 in 10.0 mi NNW 25.3 mph 33.4 mph N/A   Clear
11:53 AM 86.0 °F 34.0 °F 16% 29.64 in 10.0 mi NW 21.9 mph 27.6 mph N/A   Clear
12:53 PM 87.1 °F 35.1 °F 16% 29.60 in 10.0 mi NNW 24.2 mph 29.9 mph N/A   Clear
1:53 PM 88.0 °F 36.0 °F 16% 29.59 in 10.0 mi North 17.3 mph 27.6 mph N/A   Clear
2:53 PM 90.0 °F 34.0 °F 14% 29.57 in 10.0 mi WNW 13.8 mph - N/A   Clear
3:53 PM 89.1 °F 34.0 °F 14% 29.54 in 10.0 mi NW 13.8 mph - N/A   Clear
4:53 PM 89.1 °F 30.9 °F 12% 29.52 in 10.0 mi NNW 3.5 mph - N/A   Clear
5:53 PM 88.0 °F 28.0 °F 12% 29.50 in 10.0 mi NNW 6.9 mph - N/A   Clear
6:53 PM 84.0 °F 34.0 °F 17% 29.49 in 10.0 mi NW 5.8 mph - N/A   Clear
7:53 PM 77.0 °F 43.0 °F 30% 29.49 in 10.0 mi North 11.5 mph - N/A   Clear
8:53 PM 68.0 °F 43.0 °F 40% 29.50 in 10.0 mi Variable 4.6 mph - N/A   Clear
9:53 PM 69.1 °F 43.0 °F 39% 29.50 in 10.0 mi West 4.6 mph - N/A   Clear
10:53 PM 62.1 °F 48.0 °F 60% 29.52 in 10.0 mi SSW 9.2 mph - N/A   Clear
11:53 PM 59.0 °F 48.0 °F 67% 29.53 in 10.0 mi SE 11.5 mph - N/A   Clear